Time,TemperatureF,DewpointF,PressureIn,WindDirection,WindDirectionDegrees,WindSpeedMPH,WindSpeedGustMPH,Humidity,HourlyPrecipIn,Conditions,Clouds,dailyrainin,SoftwareType,DateUTC
2013-07-12 00:10:00,69.1,68.0,29.83,NE,46,0.0,-999.0,96,-99.99,,,0.00,weatherlink.com 1.10,2013-07-12 04:10:00,
2013-07-12 00:25:00,68.9,68.0,29.83,NE,46,0.0,-999.0,96,-99.99,,,0.00,weatherlink.com 1.10,2013-07-12 04:25:00,
2013-07-12 00:40:00,68.9,68.0,29.83,NE,46,0.0,-999.0,96,-99.99,,,0.00,weatherlink.com 1.10,2013-07-12 04:40:00,
2013-07-12 00:55:00,68.9,68.0,29.84,NNE,29,0.0,-999.0,96,-99.99,,,0.00,weatherlink.com 1.10,2013-07-12 04:55:00,
2013-07-12 01:10:00,68.4,67.0,29.84,NNE,14,0.0,-999.0,95,-99.99,,,0.00,weatherlink.com 1.10,2013-07-12 05:10:00,
2013-07-12 01:25:00,68.0,66.0,29.84,ENE,71,0.0,-999.0,92,-99.99,,,0.00,weatherlink.com 1.10,2013-07-12 05:25:00,
2013-07-12 01:40:00,68.1,65.0,29.84,NNE,26,0.0,-999.0,90,-99.99,,,0.00,weatherlink.com 1.10,2013-07-12 05:40:00,
2013-07-12 01:55:00,67.8,65.0,29.84,NE,34,3.0,-999.0,89,-99.99,,,0.00,weatherlink.com 1.10,2013-07-12 05:55:00,
2013-07-12 02:10:00,67.5,64.0,29.85,NE,51,2.0,-999.0,88,-99.99,,,0.00,weatherlink.com 1.10,2013-07-12 06:10:00,
2013-07-12 02:25:00,67.2,64.0,29.85,North,9,0.0,-999.0,88,-99.99,,,0.00,weatherlink.com 1.10,2013-07-12 06:25:00,
2013-07-12 02:40:00,66.9,63.0,29.86,NNE,29,0.0,-999.0,88,-99.99,,,0.00,weatherlink.com 1.10,2013-07-12 06:40:00,
2013-07-12 02:55:00,66.7,63.0,29.86,NNE,22,1.0,-999.0,88,-99.99,,,0.00,weatherlink.com 1.10,2013-07-12 06:55:00,
2013-07-12 03:10:00,66.3,63.0,29.86,North,355,0.0,-999.0,88,-99.99,,,0.00,weatherlink.com 1.10,2013-07-12 07:10:00,
2013-07-12 03:25:00,66.0,62.0,29.87,ESE,104,0.0,-999.0,88,-99.99,,,0.00,weatherlink.com 1.10,2013-07-12 07:25:00,
2013-07-12 03:40:00,65.6,62.0,29.88,NNE,26,0.0,-999.0,88,-99.99,,,0.00,weatherlink.com 1.10,2013-07-12 07:40:00,
2013-07-12 03:55:00,65.4,62.0,29.89,North,355,0.0,-999.0,89,-99.99,,,0.00,weatherlink.com 1.10,2013-07-12 07:55:00,
2013-07-12 04:10:00,65.2,62.0,29.89,NE,34,0.0,-999.0,88,-99.99,,,0.00,weatherlink.com 1.10,2013-07-12 08:10:00,
2013-07-12 04:26:00,65.0,61.0,29.90,NE,49,0.0,-999.0,88,-99.99,,,0.00,weatherlink.com 1.10,2013-07-12 08:26:00,
2013-07-12 04:41:00,64.9,61.0,29.91,NE,49,0.0,-999.0,88,-99.99,,,0.00,weatherlink.com 1.10,2013-07-12 08:41:00,
2013-07-12 04:56:00,64.8,61.0,29.91,NE,49,0.0,-999.0,88,-99.99,,,0.00,weatherlink.com 1.10,2013-07-12 08:56:00,
2013-07-12 05:11:00,64.9,62.0,29.92,NE,49,0.0,-999.0,89,-99.99,,,0.00,weatherlink.com 1.10,2013-07-12 09:11:00,
2013-07-12 05:26:00,65.0,61.0,29.92,NNE,14,0.0,-999.0,87,-99.99,,,0.00,weatherlink.com 1.10,2013-07-12 09:26:00,
2013-07-12 05:41:00,65.3,61.0,29.93,East,89,0.0,-999.0,86,-99.99,,,0.00,weatherlink.com 1.10,2013-07-12 09:41:00,
2013-07-12 05:56:00,65.6,61.0,29.93,NE,51,1.0,-999.0,84,-99.99,,,0.00,weatherlink.com 1.10,2013-07-12 09:56:00,
2013-07-12 06:11:00,65.8,61.0,29.94,NNE,16,1.0,-999.0,84,-99.99,,,0.00,weatherlink.com 1.10,2013-07-12 10:11:00,
2013-07-12 06:26:00,66.1,61.0,29.94,NE,36,0.0,-999.0,84,-99.99,,,0.00,weatherlink.com 1.10,2013-07-12 10:26:00,
2013-07-12 06:41:00,66.1,61.0,29.94,ENE,62,1.0,-999.0,84,-99.99,,,0.00,weatherlink.com 1.10,2013-07-12 10:41:00,
2013-07-12 06:56:00,66.3,61.0,29.95,NNE,26,0.0,-999.0,84,-99.99,,,0.00,weatherlink.com 1.10,2013-07-12 10:56:00,
2013-07-12 07:11:00,68.0,62.0,29.95,NE,37,0.0,-999.0,81,-99.99,,,0.00,weatherlink.com 1.10,2013-07-12 11:11:00,
2013-07-12 07:26:00,68.0,61.0,29.95,ENE,57,0.0,-999.0,79,-99.99,,,0.00,weatherlink.com 1.10,2013-07-12 11:26:00,
2013-07-12 07:41:00,68.0,62.0,29.96,NE,42,0.0,-999.0,80,-99.99,,,0.00,weatherlink.com 1.10,2013-07-12 11:41:00,
2013-07-12 07:56:00,69.7,63.0,29.96,NNW,338,0.0,-999.0,79,-99.99,,,0.00,weatherlink.com 1.10,2013-07-12 11:56:00,
2013-07-12 08:11:00,71.5,63.0,29.97,North,360,0.0,-999.0,75,-99.99,,,0.00,weatherlink.com 1.10,2013-07-12 12:11:00,
2013-07-12 08:26:00,71.4,62.0,29.97,ESE,119,0.0,-999.0,73,-99.99,,,0.00,weatherlink.com 1.10,2013-07-12 12:26:00,
2013-07-12 08:41:00,71.2,62.0,29.98,NNE,13,0.0,-999.0,72,-99.99,,,0.00,weatherlink.com 1.10,2013-07-12 12:41:00,
2013-07-12 08:56:00,71.5,62.0,29.98,NE,53,0.0,-999.0,72,-99.99,,,0.00,weatherlink.com 1.10,2013-07-12 12:56:00,
2013-07-12 09:11:00,73.2,63.0,29.99,North,360,0.0,-999.0,70,-99.99,,,0.00,weatherlink.com 1.10,2013-07-12 13:11:00,
2013-07-12 09:26:00,73.8,62.0,29.99,North,360,0.0,-999.0,67,-99.99,,,0.00,weatherlink.com 1.10,2013-07-12 13:26:00,
2013-07-12 09:41:00,73.1,60.0,30.00,NE,36,0.0,-999.0,63,-99.99,,,0.00,weatherlink.com 1.10,2013-07-12 13:41:00,
2013-07-12 09:56:00,73.3,60.0,30.00,NE,55,0.0,-999.0,63,-99.99,,,0.00,weatherlink.com 1.10,2013-07-12 13:56:00,
2013-07-12 10:11:00,72.8,58.0,30.00,NNE,32,0.0,-999.0,61,-99.99,,,0.00,weatherlink.com 1.10,2013-07-12 14:11:00,
2013-07-12 10:26:00,72.5,60.0,30.01,NE,51,0.0,-999.0,65,-99.99,,,0.00,weatherlink.com 1.10,2013-07-12 14:26:00,
2013-07-12 10:41:00,72.1,59.0,30.01,ESE,116,0.0,-999.0,63,-99.99,,,0.00,weatherlink.com 1.10,2013-07-12 14:41:00,
2013-07-12 10:56:00,72.9,59.0,30.02,East,86,0.0,-999.0,62,-99.99,,,0.00,weatherlink.com 1.10,2013-07-12 14:56:00,
2013-07-12 11:11:00,73.5,58.0,30.02,SSW,194,0.0,-999.0,59,-99.99,,,0.00,weatherlink.com 1.10,2013-07-12 15:11:00,
2013-07-12 11:26:00,74.1,58.0,30.02,North,360,0.0,-999.0,58,-99.99,,,0.00,weatherlink.com 1.10,2013-07-12 15:26:00,
2013-07-12 11:41:00,73.8,58.0,30.02,North,360,0.0,-999.0,58,-99.99,,,0.00,weatherlink.com 1.10,2013-07-12 15:41:00,
2013-07-12 11:56:00,73.7,58.0,30.03,NE,55,0.0,-999.0,59,-99.99,,,0.00,weatherlink.com 1.10,2013-07-12 15:56:00,
2013-07-12 12:11:00,73.3,58.0,30.03,ENE,68,0.0,-999.0,60,-99.99,,,0.00,weatherlink.com 1.10,2013-07-12 16:11:00,
2013-07-12 12:26:00,74.0,59.0,30.03,North,360,0.0,-999.0,59,-99.99,,,0.00,weatherlink.com 1.10,2013-07-12 16:26:00,
2013-07-12 12:41:00,73.7,58.0,30.03,NE,39,0.0,-999.0,59,-99.99,,,0.00,weatherlink.com 1.10,2013-07-12 16:41:00,
2013-07-12 13:11:00,72.7,57.0,30.03,NE,34,0.0,-999.0,59,-99.99,,,0.00,weatherlink.com 1.10,2013-07-12 17:11:00,
2013-07-12 13:26:00,72.7,57.0,30.03,East,84,0.0,-999.0,58,-99.99,,,0.00,weatherlink.com 1.10,2013-07-12 17:26:00,
2013-07-12 14:11:00,74.3,59.0,30.03,NE,53,0.0,-999.0,59,-99.99,,,0.00,weatherlink.com 1.10,2013-07-12 18:11:00,
2013-07-12 14:41:00,74.4,57.0,30.04,ENE,63,0.0,-999.0,55,-99.99,,,0.00,weatherlink.com 1.10,2013-07-12 18:41:00,
2013-07-12 14:56:00,74.3,57.0,30.03,North,360,0.0,-999.0,56,-99.99,,,0.00,weatherlink.com 1.10,2013-07-12 18:56:00,
2013-07-12 15:11:00,74.6,58.0,30.04,North,360,0.0,-999.0,56,-99.99,,,0.00,weatherlink.com 1.10,2013-07-12 19:11:00,
2013-07-12 15:26:00,74.8,58.0,30.03,North,360,0.0,-999.0,56,-99.99,,,0.00,weatherlink.com 1.10,2013-07-12 19:26:00,
2013-07-12 15:41:00,74.9,58.0,30.03,North,360,0.0,-999.0,55,-99.99,,,0.00,weatherlink.com 1.10,2013-07-12 19:41:00,
2013-07-12 16:11:00,74.6,58.0,30.03,North,360,0.0,-999.0,56,-99.99,,,0.00,weatherlink.com 1.10,2013-07-12 20:11:00,
2013-07-12 16:26:00,75.1,59.0,30.03,North,360,0.0,-999.0,57,-99.99,,,0.00,weatherlink.com 1.10,2013-07-12 20:26:00,
2013-07-12 16:41:00,75.5,59.0,30.04,North,360,0.0,-999.0,57,-99.99,,,0.00,weatherlink.com 1.10,2013-07-12 20:41:00,
2013-07-12 17:26:00,73.7,58.0,30.04,North,360,0.0,-999.0,58,-99.99,,,0.00,weatherlink.com 1.10,2013-07-12 21:26:00,
2013-07-12 17:41:00,73.2,58.0,30.04,North,360,0.0,-999.0,60,-99.99,,,0.00,weatherlink.com 1.10,2013-07-12 21:41:00,
2013-07-12 17:56:00,73.1,59.0,30.04,East,81,0.0,-999.0,61,-99.99,,,0.00,weatherlink.com 1.10,2013-07-12 21:56:00,
2013-07-12 18:26:00,71.1,58.0,30.04,South,176,0.0,-999.0,63,-99.99,,,0.00,weatherlink.com 1.10,2013-07-12 22:26:00,
2013-07-12 18:41:00,70.3,58.0,30.04,NE,53,0.0,-999.0,66,-99.99,,,0.00,weatherlink.com 1.10,2013-07-12 22:41:00,
2013-07-12 18:56:00,69.5,59.0,30.04,NNE,32,0.0,-999.0,69,-99.99,,,0.00,weatherlink.com 1.10,2013-07-12 22:56:00,
2013-07-12 19:26:00,68.6,59.0,30.04,South,180,0.0,-999.0,72,-99.99,,,0.00,weatherlink.com 1.10,2013-07-12 23:26:00,
2013-07-12 19:41:00,68.1,60.0,30.05,SSE,167,0.0,-999.0,74,-99.99,,,0.00,weatherlink.com 1.10,2013-07-12 23:41:00,
2013-07-12 19:56:00,67.7,60.0,30.05,SSW,207,0.0,-999.0,75,-99.99,,,0.00,weatherlink.com 1.10,2013-07-12 23:56:00,
2013-07-12 20:11:00,67.3,60.0,30.05,SSW,207,0.0,-999.0,76,-99.99,,,0.00,weatherlink.com 1.10,2013-07-13 00:11:00,
2013-07-12 20:26:00,66.9,60.0,30.06,SSW,207,0.0,-999.0,78,-99.99,,,0.00,weatherlink.com 1.10,2013-07-13 00:26:00,
2013-07-12 20:41:00,66.3,60.0,30.06,SSW,207,0.0,-999.0,80,-99.99,,,0.00,weatherlink.com 1.10,2013-07-13 00:41:00,
2013-07-12 20:56:00,65.7,60.0,30.06,SSW,207,0.0,-999.0,82,-99.99,,,0.00,weatherlink.com 1.10,2013-07-13 00:56:00,
2013-07-12 21:11:00,65.3,60.0,30.07,SSW,207,0.0,-999.0,83,-99.99,,,0.00,weatherlink.com 1.10,2013-07-13 01:11:00,
2013-07-12 21:26:00,64.9,60.0,30.07,SSW,207,0.0,-999.0,83,-99.99,,,0.00,weatherlink.com 1.10,2013-07-13 01:26:00,
2013-07-12 21:41:00,64.7,60.0,30.07,SSW,207,0.0,-999.0,85,-99.99,,,0.00,weatherlink.com 1.10,2013-07-13 01:41:00,
2013-07-12 22:11:00,64.2,60.0,30.08,SSW,207,0.0,-999.0,87,-99.99,,,0.00,weatherlink.com 1.10,2013-07-13 02:11:00,
2013-07-12 22:26:00,64.0,60.0,30.08,SSW,207,0.0,-999.0,88,-99.99,,,0.00,weatherlink.com 1.10,2013-07-13 02:26:00,
2013-07-12 22:41:00,63.7,61.0,30.08,SSW,207,0.0,-999.0,89,-99.99,,,0.00,weatherlink.com 1.10,2013-07-13 02:41:00,
2013-07-12 22:56:00,63.5,61.0,30.09,SSW,207,0.0,-999.0,90,-99.99,,,0.00,weatherlink.com 1.10,2013-07-13 02:56:00,
2013-07-12 23:11:00,63.4,61.0,30.09,SSW,207,0.0,-999.0,90,-99.99,,,0.00,weatherlink.com 1.10,2013-07-13 03:11:00,
2013-07-12 23:26:00,63.2,60.0,30.10,SSW,207,0.0,-999.0,90,-99.99,,,0.00,weatherlink.com 1.10,2013-07-13 03:26:00,
2013-07-12 23:41:00,63.1,60.0,30.09,SSW,207,0.0,-999.0,90,-99.99,,,0.00,weatherlink.com 1.10,2013-07-13 03:41:00,